Regional Weather Roundup
Issued by NWS

Home | Current Version | Previous Version | Text Only | Print | Product List | Glossary Off
Versions: 1 2 3 4 5 6 7 8 9 10 11 12 13 14 15 16 17 18 19 20 21 22 23 24 25 26 27 28 29 30 31 32 33 34 35 36 37 38 39 40 41 42 43 44 45 46 47 48 49 50

000
ASUS43 KMPX 090810
RWRMN
WEATHER ROUNDUP FOR MINNESOTA
NATIONAL WEATHER SERVICE TWIN CITIES/CHANHASSEN MN
200 AM CST FRI DEC 09 2016


NOTE: "FAIR" INDICATES FEW OR NO CLOUDS BELOW 12,000 FEET WITH NO
SIGNIFICANT WEATHER AND/OR OBSTRUCTIONS TO VISIBILITY. N/A MEANS
CURRENT SKY AND/OR WEATHER CONDITIONS ARE NOT AVAILABLE.

MNZ060>063-068>070-090900-
   Twin Cities Metro

CITY           SKY/WX    TMP DP  RH WIND       PRES   REMARKS
TWIN CITIES    CLOUDY    16  10  77 W8        30.54R WCI   5
ST PAUL        CLOUDY    17  12  80 NW10      30.55S WCI   5
CRYSTAL        CLOUDY    15   8  73 NW8       30.53R WCI   4
BLAINE         CLOUDY    18  12  79 W9        30.52S WCI   6
LAKEVILLE      FLURRIES  10   9  92 W8        30.53S WCI  -1
EDEN PRAIRIE   CLOUDY    15   9  76 NW10      30.53S WCI   2
SOUTH ST PAUL  MOCLDY    18  12  76 NW9       30.54R WCI   7
LAKE ELMO      FLURRIES  16  12  86 W7        30.53R WCI   6
$$
MNZ001>005-007-008-013>017-022>024-027-028-090900-
   Northwest Minnesota

CITY           SKY/WX    TMP DP  RH WIND       PRES   REMARKS
BEMIDJI        CLOUDY     5   0  79 NW7       30.49S WCI  -7
HALLOCK        CLOUDY     9   3  78 CALM      30.57S
ROSEAU         CLOUDY     5   0  78 CALM      30.54R
WARROAD        CLOUDY     5  -2  72 NW8       30.53R WCI  -8
THIEF RVR FALL FLURRIES   6   2  83 NW6       30.55S WCI  -4
CROOKSTON      CLOUDY     9   3  78 N5        30.58S WCI   0
FOSSTON        CLOUDY     3   0  85 NW6       30.53F WCI  -8
DETROIT LAKES  MOCLDY     9   5  85 NW8       30.53S WCI  -4
MOORHEAD       MIX PCPN   7   1  78 W7        30.59S WCI  -5
PARK RAPIDS    CLOUDY     8   2  76 NW7       30.49S WCI  -3
$$
MNZ006-009>011-018-025>026-090900-
   North Central Minnesota

CITY           SKY/WX    TMP DP  RH WIND       PRES   REMARKS
BAUDETTE       PTCLDY     3  -2  79 NW10      30.49R WCI -12
FLAG ISLAND    LGT SNOW   7   1  78 W12       30.49S WCI  -9
INTL FALLS     CLOUDY    10   4  76 NW6       30.45S WCI   0
WASKISH        CLOUDY     5   1  85 NW6       30.50S WCI  -6
BIG FORK       FLURRIES   9   5  85 CALM      30.46R
LONGVILLE      LGT SNOW  12   9  85 NW7       30.48R WCI   2
GRAND RAPIDS   FLURRIES  11   7  84 NW12      30.47R WCI  -3
CRANE LAKE     FLURRIES  10   9  92 CALM      30.45F
ORR            CLOUDY     9   3  78 CALM      30.42R
COOK           CLOUDY    10   5  79 W10       30.44R WCI  -3
$$
MNZ012-019>021-037-090900-
   Northeast Minnesota

CITY           SKY/WX    TMP DP  RH WIND       PRES   REMARKS
DULUTH         FLURRIES  11   6  81 NW9       30.42R WCI  -2
ELY            CLOUDY     9   7  92 CALM      30.40S
HIBBING        FLURRIES  10   6  84 N6        30.44R WCI   0
EVELETH        MOCLDY    12   6  74 NW9       30.44R WCI   0
DULUTH HARBOR  CLEAR     18  10  73 NW13      30.50R WCI   4
TWO HARBORS    CLOUDY    18  10  73 NW6       30.42R WCI   9
SILVER BAY     CLEAR     10   7  85 CALM      30.41R
GRAND MARAIS     N/A     18   7  62 NW3       30.43R
G MARAIS ARPRT CLOUDY     9   1  72 NW7       30.32R WCI  -3
$$
MNZ029>031-032-039>041-046>048-054>057-064-090900-
   West Central Minnesota

CITY           SKY/WX    TMP DP  RH WIND       PRES   REMARKS
FERGUS FALLS   FLURRIES   3   0  85 NW6       30.62S WCI  -8
WHEATON        FLURRIES   1  -2  85 W7        30.62S WCI -11
MORRIS         FLURRIES   3   0  85 NW9       30.57S WCI -11
ALEXANDRIA     CLEAR      1  -2  87 NW8       30.53S WCI -13
ELBOW LAKE     FLURRIES   4   1  87 NW8       30.57S WCI  -9
WADENA         LGT SNOW   9   3  78 W7        30.51R WCI  -3
GLENWOOD       CLEAR      0  -2  92 W10       30.54S WCI -17
APPLETON       CLEAR      3  -2  78 NW6       30.60S WCI  -8
BENSON         CLEAR      1  -4  78 NW7       30.58S WCI -11
ORTONVILLE     PTCLDY     1  -4  78 CALM      30.59S
MADISON        CLEAR      5   0  78 W6        30.61R WCI  -6
WILLMAR        CLOUDY     7   1  78 NW9       30.57S WCI  -7
$$
MNZ033>034-036-042>043-049>051-058-059-090900-
   Central Minnesota

CITY           SKY/WX    TMP DP  RH WIND       PRES   REMARKS
ST CLOUD       CLOUDY    12   9  87 W8        30.52S WCI   0
PAYNESVILLE    MOCLDY     5   2  86 W9        30.55R WCI  -9
AITKIN         MIX PCPN  16  10  79 W3        30.47R
PINE RIVER     FLURRIES   9   7  92 W3        30.51S
BRAINERD       MOCLDY    12   8  84 NW8       30.49S WCI   0
STAPLES        CLOUDY     9   5  85 NW8       30.51S WCI  -4
LONG PRAIRIE   FLURRIES   7   3  85 W7        30.52S WCI  -5
LITTLE FALLS   CLOUDY    14   9  79 NW7       30.52S WCI   4
LITCHFIELD     CLOUDY    10   7  85 W9        30.55R WCI  -2
BUFFALO        CLOUDY    13   9  85 W7        30.55R WCI   3
MAPLE LAKE     FLURRIES  13  11  89 W6        30.54S WCI   4
HUTCHINSON     CLOUDY    11   8  85 W12       30.56R WCI  -3
$$
MNZ037-044-045-052-053-090900-
   East Central Minnesota

CITY           SKY/WX    TMP DP  RH WIND       PRES   REMARKS
PRINCETON      MOCLDY    12   9  85 W5        30.52R WCI   4
MORA           CLEAR     12   9  85 CALM      30.51S
CAMBRIDGE      CLEAR     12   7  79 W6        30.50S WCI   3
RUSH CITY      CLEAR     12   9  85 W3        30.51R
MOOSE LAKE     CLOUDY    16  10  79 W6        30.45S WCI   7
HINCKLEY       FAIR      12  10  92 W3        30.49R
CLOQUET        FLURRIES  12   7  79 NW3       30.44S
MCGREGOR       CLOUDY    16  12  86 W3        30.47R
$$
MNZ071>073-080-081-089-090-097-098-090900-
   Southwest Minnesota

CITY           SKY/WX    TMP DP  RH WIND       PRES   REMARKS
MONTEVIDEO     CLEAR      1  -2  85 N7        30.61S WCI -11
GRANITE FALLS  CLEAR      4   0  83 W7        30.62R WCI  -8
CANBY          CLEAR      4  -1  81 CALM      30.61S
MARSHALL       CLEAR      3  -2  79 NW8       30.60R WCI -10
REDWOOD FALLS  PTCLDY     5   0  79 NW12      30.59R WCI -11
OLIVIA         PTCLDY     9   3  78 NW10      30.57S WCI  -6
PIPESTONE      CLEAR      3   0  85 NW7       30.53F WCI  -9
WINDOM         CLEAR      7   1  78 CALM      30.56R
WORTHINGTON    CLEAR      4   1  88 W8        30.55F WCI  -9
JACKSON        CLEAR      5   1  85 NW6       30.56R WCI  -6
TRACY          CLEAR      6   2  84 NW7       30.58R WCI  -6
SLAYTON        CLEAR      3  -1  85 NW7       30.55S WCI -10
$$
MNZ065>067-074>077-082>085-091>093-090900-
   South Central Minnesota

CITY           SKY/WX    TMP DP  RH WIND       PRES   REMARKS
MANKATO        FLURRIES  10   6  84 NW9       30.56S WCI  -3
NEW ULM        FLURRIES   9   3  78 W9        30.58R WCI  -5
ST JAMES       FLURRIES   9   5  85 W13       30.58S WCI  -7
FAIRMONT       FLURRIES  11   6  81 NW15      30.57R WCI  -5
GLENCOE        CLOUDY    13  11  90 W8        30.55R WCI   2
FARIBAULT      FLURRIES  14  10  85 W9        30.53R WCI   2
OWATONNA       FLURRIES  12   9  85 NW12      30.52S WCI  -2
WASECA         LGT SNOW  14  10  85 NW13      30.55S WCI   0
ALBERT LEA     LGT SNOW  18  12  79 NW8       30.52S WCI   7
$$
MNZ078>079-086>088-094>096-090900-
   Southeast Minnesota

CITY           SKY/WX    TMP DP  RH WIND       PRES   REMARKS
ROCHESTER      FLURRIES  14  11  87 NW14      30.49R WCI  -1
RED WING       MOCLDY    19  10  68 NW6       30.51R WCI  11
STANTON        CLOUDY    17  12  81 NW12      30.52R WCI   4
DODGE CENTER   FLURRIES  12  10  92 W14       30.50R WCI  -3
WINONA         FLURRIES  21  16  79 W9        30.51R WCI  11
AUSTIN         LGT SNOW  12   9  85 NW10      30.51S WCI  -1
PRESTON        FLURRIES  14  10  86 NW12      30.49R WCI   0
$$
ABBREVIATIONS USED IN REMARKS
   TC - TEMPERATURES IN CELSIUS
  WCI - WIND CHILL INDEX
   HX - HEAT INDEX
  VSB - VISIBILITY
$$




USA.gov is the U.S. government's official web portal to all federal, state and local government web resources and services.